When you browse on this site, cookies collect data to enhance your experience and personalize the content and advertising you see.
Visit our Privacy Policy to learn more. By continuing to use the site, you agree to this use of cookies and data.
  • In Lithuania
  • List of Countries
  • For 7 days
  • Water Temperature
  • Satellite Maps
  • Weather Map
  • Weather Widgets
  • user-avatar
    Login

    Hourly Weather Faizabad

    Today, 15 December, Saturday

    Time Temperature Precipitation Wind Pressure Humidity
    00:00 +17°C° 0 mm 3 mps 756 mmHg 38%
    01:00 +16°C° 0 mm 3 mps 755 mmHg 39%
    02:00 +16°C° 0 mm 3 mps 755 mmHg 39%
    03:00 +16°C° 0 mm 3 mps 755 mmHg 40%
    04:00 +14°C° 0 mm 3 mps 755 mmHg 40%
    05:00 +14°C° 0 mm 3 mps 755 mmHg 38%
    06:00 +16°C° 0 mm 3 mps 755 mmHg 38%
    07:00 +17°C° 0 mm 3 mps 755 mmHg 38%
    08:00 +18°C° 0 mm 3 mps 756 mmHg 37%
    09:00 +20°C° 0 mm 4 mps 756 mmHg 34%
    10:00 +22°C° 0 mm 4 mps 756 mmHg 31%
    11:00 +25°C° 0 mm 3 mps 756 mmHg 27%
    12:00 +25°C° 0 mm 3 mps 756 mmHg 26%
    13:00 +26°C° 0 mm 3 mps 755 mmHg 25%
    14:00 +26°C° 0 mm 3 mps 755 mmHg 24%
    15:00 +24°C° 0 mm 3 mps 755 mmHg 27%
    16:00 +23°C° 0 mm 2 mps 754 mmHg 30%
    17:00 +20°C° 0 mm 2 mps 754 mmHg 33%
    18:00 +19°C° 0 mm 2 mps 755 mmHg 34%
    19:00 +19°C° 0 mm 2 mps 755 mmHg 35%
    20:00 +18°C° 0 mm 2 mps 756 mmHg 35%
    21:00 +17°C° 0 mm 2 mps 756 mmHg 36%
    22:00 +17°C° 0 mm 2 mps 756 mmHg 37%
    23:00 +16°C° 0 mm 2 mps 756 mmHg 38%

    Tomorrow, 16 December, Sunday

    Time Temperature Precipitation Wind Pressure Humidity
    00:00 +16°C° 0 mm 2 mps 756 mmHg 39%
    01:00 +15°C° 0 mm 2 mps 756 mmHg 41%
    02:00 +15°C° 0 mm 2 mps 756 mmHg 42%
    03:00 +15°C° 0 mm 2 mps 756 mmHg 43%
    04:00 +14°C° 0 mm 2 mps 756 mmHg 44%
    05:00 +14°C° 0 mm 2 mps 756 mmHg 46%
    06:00 +15°C° 0 mm 1 mps 756 mmHg 44%
    07:00 +16°C° 0 mm 1 mps 757 mmHg 43%
    08:00 +18°C° 0 mm 1 mps 757 mmHg 42%
    09:00 +20°C° 0 mm 1 mps 757 mmHg 37%
    10:00 +21°C° 0 mm 2 mps 757 mmHg 33%
    11:00 +24°C° 0 mm 2 mps 757 mmHg 28%
    12:00 +24°C° 0 mm 1 mps 756 mmHg 26%
    13:00 +25°C° 0 mm 1 mps 755 mmHg 24%
    14:00 +26°C° 0 mm 1 mps 755 mmHg 22%
    15:00 +24°C° 0 mm 1 mps 754 mmHg 24%
    16:00 +23°C° 0 mm 1 mps 754 mmHg 26%
    17:00 +21°C° 0 mm 1 mps 754 mmHg 29%
    18:00 +20°C° 0 mm 1 mps 755 mmHg 30%
    19:00 +20°C° 0 mm 1 mps 755 mmHg 31%
    20:00 +19°C° 0 mm 1 mps 755 mmHg 32%
    21:00 +18°C° 0 mm 1 mps 755 mmHg 34%
    22:00 +18°C° 0 mm 1 mps 755 mmHg 35%
    23:00 +16°C° 0 mm 1 mps 755 mmHg 36%

    Day after tomorrow, 17 December, Monday

    Time Temperature Precipitation Wind Pressure Humidity
    00:00 +16°C° 0 mm 1 mps 755 mmHg 36%
    01:00 +16°C° 0 mm 1 mps 755 mmHg 36%
    02:00 +16°C° 0 mm 2 mps 755 mmHg 36%
    03:00 +16°C° 0 mm 1 mps 754 mmHg 37%
    04:00 +16°C° 0 mm 1 mps 754 mmHg 38%
    05:00 +14°C° 0 mm 0 mps 754 mmHg 39%
    06:00 +15°C° 0 mm 0 mps 755 mmHg 40%
    07:00 +16°C° 0 mm 0 mps 756 mmHg 40%
    08:00 +16°C° 0 mm 0 mps 756 mmHg 40%
    09:00 +17°C° 0 mm 0 mps 756 mmHg 38%
    10:00 +20°C° 0 mm 1 mps 756 mmHg 36%
    11:00 +21°C° 0 mm 1 mps 757 mmHg 34%
    12:00 +21°C° 0 mm 1 mps 756 mmHg 33%
    13:00 +22°C° 0 mm 1 mps 755 mmHg 31%
    14:00 +21°C° 0 mm 0 mps 754 mmHg 30%
    15:00 +22°C° 0 mm 1 mps 754 mmHg 32%
    16:00 +21°C° 0 mm 1 mps 754 mmHg 34%
    17:00 +20°C° 0 mm 1 mps 754 mmHg 36%
    18:00 +19°C° 0 mm 1 mps 754 mmHg 37%
    19:00 +19°C° 0 mm 1 mps 755 mmHg 37%
    20:00 +19°C° 0 mm 1 mps 755 mmHg 38%
    21:00 +18°C° 0 mm 1 mps 755 mmHg 39%
    22:00 +18°C° 0 mm 1 mps 755 mmHg 40%
    23:00 +16°C° 0 mm 1 mps 755 mmHg 41%

    18 December, Tuesday

    Time Temperature Precipitation Wind Pressure Humidity
    00:00 +16°C° 0 mm 1 mps 754 mmHg 41%
    01:00 +16°C° 0 mm 1 mps 754 mmHg 41%
    02:00 +16°C° 0 mm 1 mps 754 mmHg 42%
    03:00 +15°C° 0 mm 1 mps 754 mmHg 42%
    04:00 +15°C° 0 mm 1 mps 754 mmHg 43%
    05:00 +15°C° 0 mm 1 mps 754 mmHg 44%
    06:00 +15°C° 0 mm 1 mps 754 mmHg 43%
    07:00 +16°C° 0 mm 1 mps 755 mmHg 42%
    08:00 +18°C° 0 mm 1 mps 756 mmHg 41%
    09:00 +19°C° 0 mm 1 mps 755 mmHg 37%
    10:00 +20°C° 0 mm 2 mps 755 mmHg 32%
    11:00 +23°C° 0 mm 2 mps 755 mmHg 28%
    12:00 +24°C° 0 mm 3 mps 754 mmHg 26%
    13:00 +25°C° 0 mm 3 mps 753 mmHg 24%
    14:00 +25°C° 0 mm 3 mps 753 mmHg 23%
    15:00 +24°C° 0 mm 3 mps 752 mmHg 25%
    16:00 +21°C° 0 mm 3 mps 752 mmHg 28%
    17:00 +19°C° 0 mm 2 mps 752 mmHg 31%
    18:00 +18°C° 0 mm 2 mps 752 mmHg 31%
    19:00 +18°C° 0 mm 2 mps 753 mmHg 32%
    20:00 +17°C° 0 mm 2 mps 753 mmHg 33%
    21:00 +16°C° 0 mm 2 mps 753 mmHg 35%
    22:00 +16°C° 0 mm 2 mps 753 mmHg 36%
    23:00 +15°C° 0 mm 2 mps 753 mmHg 37%

    19 December, Wednesday

    Time Temperature Precipitation Wind Pressure Humidity
    00:00 +15°C° 0 mm 2 mps 752 mmHg 38%
    01:00 +14°C° 0 mm 2 mps 752 mmHg 39%
    02:00 +14°C° 0 mm 2 mps 752 mmHg 41%
    03:00 +13°C° 0 mm 2 mps 752 mmHg 41%
    04:00 +13°C° 0 mm 2 mps 752 mmHg 42%
    05:00 +13°C° 0 mm 2 mps 752 mmHg 43%
    06:00 +13°C° 0 mm 2 mps 753 mmHg 42%
    07:00 +14°C° 0 mm 2 mps 753 mmHg 41%
    08:00 +15°C° 0 mm 2 mps 754 mmHg 40%
    09:00 +17°C° 0 mm 2 mps 754 mmHg 36%
    10:00 +19°C° 0 mm 2 mps 754 mmHg 31%
    11:00 +21°C° 0 mm 2 mps 754 mmHg 26%
    12:00 +22°C° 0 mm 3 mps 754 mmHg 25%
    13:00 +24°C° 0 mm 3 mps 753 mmHg 23%
    14:00 +24°C° 0 mm 3 mps 752 mmHg 21%
    15:00 +23°C° 0 mm 2 mps 752 mmHg 24%
    16:00 +20°C° 0 mm 2 mps 752 mmHg 27%
    17:00 +19°C° 0 mm 2 mps 752 mmHg 29%
    18:00 +18°C° 0 mm 2 mps 753 mmHg 30%
    19:00 +17°C° 0 mm 2 mps 753 mmHg 31%
    20:00 +16°C° 0 mm 1 mps 754 mmHg 32%
    21:00 +16°C° 0 mm 1 mps 754 mmHg 33%
    22:00 +15°C° 0 mm 1 mps 754 mmHg 33%
    23:00 +15°C° 0 mm 1 mps 754 mmHg 34%

    20 December, Thursday

    Time Temperature Precipitation Wind Pressure Humidity
    00:00 +14°C° 0 mm 1 mps 753 mmHg 35%
    01:00 +14°C° 0 mm 1 mps 753 mmHg 36%
    02:00 +14°C° 0 mm 1 mps 753 mmHg 37%
    03:00 +13°C° 0 mm 1 mps 753 mmHg 37%
    04:00 +13°C° 0 mm 1 mps 753 mmHg 38%
    05:00 +13°C° 0 mm 1 mps 753 mmHg 38%
    06:00 +14°C° 0 mm 1 mps 754 mmHg 37%
    07:00 +15°C° 0 mm 1 mps 755 mmHg 36%
    08:00 +16°C° 0 mm 1 mps 755 mmHg 35%
    09:00 +18°C° 0 mm 1 mps 755 mmHg 32%
    10:00 +20°C° 0 mm 1 mps 755 mmHg 28%
    11:00 +21°C° 0 mm 2 mps 755 mmHg 25%
    12:00 +23°C° 0 mm 2 mps 754 mmHg 24%
    13:00 +24°C° 0 mm 2 mps 753 mmHg 22%
    14:00 +25°C° 0 mm 3 mps 752 mmHg 21%
    15:00 +23°C° 0 mm 2 mps 752 mmHg 24%
    16:00 +20°C° 0 mm 2 mps 752 mmHg 27%
    17:00 +19°C° 0 mm 2 mps 752 mmHg 30%
    18:00 +18°C° 0 mm 2 mps 752 mmHg 31%
    19:00 +17°C° 0 mm 2 mps 752 mmHg 32%
    20:00 +16°C° 0 mm 2 mps 752 mmHg 33%
    21:00 +16°C° 0 mm 2 mps 752 mmHg 34%
    22:00 +15°C° 0 mm 2 mps 752 mmHg 35%
    23:00 +15°C° 0 mm 2 mps 752 mmHg 35%
    Show more